EW9362 Weather Reports


Display with metric or nautical units.
time (UTC)temp
F
wind
direction
speed
MPH
gust
MPH
rain 1hr
in
rain 24hr
in
rain mn
in
humidity
%
barometer
mb
20260504215528 79 143 2.0 9.0 0.00 0.17 0.17 42 1007.9
20260504215029 79 341 2.0 9.0 0.00 0.17 0.17 42 1008.0
20260504214548 80 250 2.0 7.0 0.00 0.17 0.17 43 1007.9
20260504214030 80 354 2.0 7.0 0.00 0.17 0.17 45 1007.9
20260504213527 80 334 1.0 10.0 0.00 0.17 0.17 44 1007.8
20260504213048 79 0 2.0 13.0 0.00 0.17 0.17 45 1008.0
20260504212528 79 70 2.0 13.0 0.00 0.17 0.17 45 1008.1
20260504212027 79 24 2.0 7.0 0.00 0.17 0.17 45 1008.0
20260504211549 79 0 1.0 10.0 0.00 0.17 0.17 45 1008.1
20260504211028 80 123 2.0 13.0 0.00 0.17 0.17 46 1008.2
20260504210528 80 0 1.0 13.0 0.00 0.17 0.17 46 1008.2
20260504210050 78 323 3.0 9.0 0.00 0.17 0.17 44 1008.1
20260504205530 78 19 2.0 8.0 0.00 0.17 0.17 45 1008.3
20260504205028 78 30 1.0 8.0 0.00 0.17 0.17 46 1008.3
20260504204543 79 14 1.0 14.0 0.00 0.17 0.17 45 1008.3
20260504204028 78 0 3.0 15.0 0.00 0.17 0.17 46 1008.5
20260504203528 78 205 5.0 15.0 0.00 0.17 0.17 44 1008.3
20260504203043 79 226 5.0 15.0 0.00 0.17 0.17 43 1008.3
20260504202527 80 137 1.0 9.0 0.00 0.17 0.17 43 1008.4
20260504202026 79 0 1.0 9.0 0.00 0.17 0.17 44 1008.3
20260504201539 79 181 2.0 9.0 0.00 0.17 0.17 43 1008.4
20260504201027 78 28 3.0 9.0 0.00 0.17 0.17 45 1008.5
20260504200527 79 111 1.0 12.0 0.00 0.17 0.17 43 1008.6
20260504200051 78 284 3.0 12.0 0.00 0.17 0.17 45 1008.4
20260504195527 79 11 4.0 9.0 0.00 0.17 0.17 43 1008.4
20260504195027 79 178 2.0 12.0 0.00 0.17 0.17 44 1008.5
20260504194546 78 32 3.0 12.0 0.00 0.17 0.17 43 1008.6
20260504194032 79 18 3.0 10.0 0.00 0.17 0.17 43 1008.6
20260504193529 78 196 1.0 10.0 0.00 0.17 0.17 44 1008.7
20260504193043 77 21 2.0 10.0 0.00 0.17 0.17 44 1008.8
20260504192529 78 347 2.0 7.0 0.00 0.17 0.17 42 1008.9
20260504192029 79 106 1.0 8.0 0.00 0.17 0.17 44 1008.9
20260504191556 79 169 3.0 11.0 0.00 0.17 0.17 44 1009.0
20260504191029 79 354 1.0 11.0 0.00 0.17 0.17 46 1009.0
20260504190529 78 22 3.0 10.0 0.00 0.17 0.17 44 1009.2
20260504185532 79 86 1.0 9.0 0.00 0.17 0.17 44 1009.2
20260504185029 79 60 2.0 9.0 0.00 0.17 0.17 44 1009.4
20260504184602 79 94 2.0 10.0 0.00 0.17 0.17 45 1009.5
20260504184031 78 248 1.0 10.0 0.00 0.17 0.17 46 1009.3
20260504183529 79 274 1.0 7.0 0.00 0.17 0.17 45 1009.4
20260504183050 78 2 2.0 5.0 0.00 0.17 0.17 45 1009.5
20260504182528 78 0 1.0 8.0 0.00 0.17 0.17 46 1009.4
20260504182028 78 163 1.0 8.0 0.00 0.17 0.17 45 1009.5
20260504181548 78 323 0.0 7.0 0.00 0.17 0.17 47 1009.4
20260504181028 78 197 2.0 13.0 0.00 0.17 0.17 48 1009.6
20260504180528 78 198 1.0 13.0 0.00 0.17 0.17 46 1009.5
20260504180054 78 252 2.0 9.0 0.00 0.17 0.17 47 1009.6
20260504175528 78 176 1.0 8.0 0.00 0.17 0.17 47 1009.6
20260504175032 77 357 1.0 10.0 0.00 0.17 0.17 47 1009.5
20260504174546 77 263 2.0 10.0 0.00 0.17 0.17 49 1009.5
20260504174028 77 136 1.0 11.0 0.00 0.17 0.17 51 1009.5
20260504173527 77 0 1.0 11.0 0.00 0.17 0.17 51 1009.6
20260504173047 76 212 1.0 10.0 0.00 0.17 0.17 49 1009.4
20260504172530 76 154 0.0 9.0 0.00 0.17 0.17 50 1009.5
20260504172028 76 41 1.0 9.0 0.00 0.17 0.17 50 1009.5
20260504171545 76 133 1.0 11.0 0.00 0.17 0.17 49 1009.5
20260504171029 76 177 3.0 11.0 0.00 0.17 0.17 51 1009.5
20260504170529 76 0 1.0 15.0 0.00 0.17 0.17 50 1009.6
20260504151029 66 201 3.0 12.0 0.00 0.17 0.17 62 1010.4
20260504150529 66 232 3.0 14.0 0.00 0.17 0.17 63 1010.4
20260504141030 58 226 3.0 9.0 0.00 0.17 0.17 77 1010.6
20260504140528 57 217 3.0 7.0 0.00 0.17 0.17 81 1010.7
20260504130531 52 210 5.0 10.0 0.06 0.17 0.17 84 1011.4
20260504110528 53 234 1.0 9.0 0.00 0.02 0.02 74 1011.4
20260504100529 52 176 0.0 4.0 0.02 0.02 0.02 80 1011.9
20260504081546 55 222 2.0 9.0 0.00 0.00 0.00 67 1011.0
20260504081029 55 165 4.0 9.0 0.00 0.00 0.00 68 1011.0
20260504080529 55 174 3.0 6.0 0.00 0.00 0.00 68 1011.0
20260504050530 55 240 2.0 8.0 0.00 0.00 0.00 59 1013.3
20260504045527 55 200 2.0 7.0 0.00 0.00 0.00 60 1013.3
20260504045029 55 186 3.0 6.0 0.00 0.00 0.00 60 1013.3
20260504044552 55 189 2.0 6.0 0.00 0.00 0.00 60 1013.3
20260504044031 55 160 3.0 6.0 0.00 0.00 0.00 60 1013.4
20260504043527 55 186 2.0 7.0 0.00 0.00 0.00 60 1013.4
20260504043046 55 0 2.0 7.0 0.00 0.00 0.00 60 1013.5
20260504042527 54 184 2.0 7.0 0.00 0.00 0.00 60 1013.4
20260504042027 55 169 3.0 5.0 0.00 0.00 0.00 60 1013.5
20260504041546 55 191 1.0 6.0 0.00 0.00 0.00 60 1013.4
20260504041027 55 188 2.0 6.0 0.00 0.00 0.00 59 1013.4
20260504040527 55 162 2.0 5.0 0.00 0.00 0.00 59 1013.4
20260504035527 55 193 2.0 7.0 0.00 0.00 0.00 58 1013.5
20260504035027 55 198 2.0 7.0 0.00 0.00 0.00 58 1013.6
20260504034555 55 203 3.0 6.0 0.00 0.00 0.00 58 1013.6
20260504034027 55 232 3.0 6.0 0.00 0.00 0.00 58 1013.6
20260504033527 55 169 2.0 6.0 0.00 0.00 0.00 58 1013.8
20260504033114 55 169 1.0 7.0 0.00 0.00 0.00 58 1013.8
20260504032528 55 175 2.0 7.0 0.00 0.00 0.00 57 1014.0
20260504032029 55 160 3.0 7.0 0.00 0.00 0.00 57 1014.1
20260504031546 55 153 2.0 7.0 0.00 0.00 0.00 58 1014.0
20260504031030 55 186 2.0 6.0 0.00 0.00 0.00 58 1014.1
20260504030527 55 231 2.0 4.0 0.00 0.00 0.00 58 1014.2
20260504030048 55 148 2.0 4.0 0.00 0.00 0.00 58 1014.2
20260504025531 55 142 2.0 4.0 0.00 0.00 0.00 57 1014.2
20260504025027 55 0 2.0 4.0 0.00 0.00 0.00 57 1014.2
20260504024544 56 181 1.0 5.0 0.00 0.00 0.00 57 1014.3
20260504024027 56 157 2.0 5.0 0.00 0.00 0.00 57 1014.3
20260504023527 56 184 2.0 4.0 0.00 0.00 0.00 57 1014.2
20260504023057 56 167 1.0 3.0 0.00 0.00 0.00 57 1014.4
20260504022527 56 0 1.0 2.0 0.00 0.00 0.00 56 1014.4
20260504022029 55 182 0.0 3.0 0.00 0.00 0.00 57 1014.3
20260504021546 55 0 0.0 3.0 0.00 0.00 0.00 57 1014.5
20260504021028 55 174 0.0 2.0 0.00 0.00 0.00 58 1014.5
20260504020530 55 169 0.0 2.0 0.00 0.00 0.00 58 1014.5
20260504020052 55 0 0.0 2.0 0.00 0.00 0.00 58 1014.5
20260504015528 55 0 0.0 1.0 0.00 0.00 0.00 61 1014.4
20260504015028 55 162 0.0 1.0 0.00 0.00 0.00 59 1014.4
20260504014549 55 0 0.0 0.0 0.00 0.00 0.00 59 1014.5
20260504014027 56 0 0.0 0.0 0.00 0.00 0.00 59 1014.4
20260504013529 56 0 0.0 0.0 0.00 0.00 0.00 58 1014.4
20260504013047 56 0 0.0 0.0 0.00 0.00 0.00 57 1014.4
20260504012527 57 0 0.0 0.0 0.00 0.00 0.00 55 1014.4
20260504012027 57 0 0.0 0.0 0.00 0.00 0.00 57 1014.3
20260504011540 57 0 0.0 1.0 0.00 0.00 0.00 53 1014.3
20260504011027 58 0 0.0 2.0 0.00 0.00 0.00 52 1014.2
20260504010527 58 157 0.0 2.0 0.00 0.00 0.00 51 1013.8
20260504010047 58 184 0.0 2.0 0.00 0.00 0.00 51 1013.7
20260504005528 59 0 0.0 2.0 0.00 0.00 0.00 50 1013.9
20260504005027 59 0 0.0 3.0 0.00 0.00 0.00 50 1013.8
20260504004600 59 0 0.0 3.0 0.00 0.00 0.00 49 1013.7
20260504004026 60 0 0.0 4.0 0.00 0.00 0.00 48 1013.9
20260504003527 60 0 1.0 4.0 0.00 0.00 0.00 48 1013.6
20260504003045 60 179 1.0 4.0 0.00 0.00 0.00 47 1013.6
20260504002527 61 195 0.0 6.0 0.00 0.00 0.00 46 1013.5
20260504002027 61 195 1.0 6.0 0.00 0.00 0.00 46 1013.5
20260504001544 62 0 0.0 4.0 0.00 0.00 0.00 45 1013.6
20260504001027 62 0 0.0 4.0 0.00 0.00 0.00 44 1013.5
20260504000527 62 0 0.0 6.0 0.00 0.00 0.00 44 1013.3
20260504000046 63 0 1.0 6.0 0.00 0.00 0.00 43 1013.3
20260503235529 63 184 1.0 6.0 0.00 0.00 0.00 43 1013.4
20260503235027 64 0 0.0 7.0 0.00 0.00 0.00 42 1013.4
20260503234542 64 217 0.0 7.0 0.00 0.00 0.00 41 1013.4
20260503234029 64 241 3.0 9.0 0.00 0.00 0.00 42 1013.4
20260503233529 64 0 2.0 12.0 0.00 0.00 0.00 42 1013.4
20260503233047 64 0 2.0 12.0 0.00 0.00 0.00 41 1013.4
20260503232527 65 146 2.0 7.0 0.00 0.00 0.00 41 1013.5
20260503232027 65 0 1.0 11.0 0.00 0.00 0.00 40 1013.5
20260503231549 64 253 2.0 12.0 0.00 0.00 0.00 40 1013.6
20260503231028 64 166 1.0 12.0 0.00 0.00 0.00 40 1013.6
20260503230528 64 221 3.0 12.0 0.00 0.00 0.00 39 1013.8
20260503230052 64 243 2.0 9.0 0.00 0.00 0.00 38 1013.8
20260503225527 64 246 2.0 8.0 0.00 0.00 0.00 39 1014.0
20260503225027 64 222 1.0 6.0 0.00 0.00 0.00 39 1014.1
20260503224541 64 0 0.0 10.0 0.00 0.00 0.00 40 1014.3
20260503224027 64 94 0.0 10.0 0.00 0.00 0.00 39 1014.3
20260503223530 64 131 3.0 10.0 0.00 0.00 0.00 39 1014.4
20260503223043 65 0 0.0 10.0 0.00 0.00 0.00 39 1014.5
20260503222527 65 186 1.0 10.0 0.00 0.00 0.00 38 1014.7
20260503222029 65 239 3.0 13.0 0.00 0.00 0.00 35 1014.8
20260503221551 66 233 3.0 13.0 0.00 0.00 0.00 36 1014.6
20260503221027 66 9 1.0 13.0 0.00 0.00 0.00 36 1014.4
20260503220531 66 0 1.0 6.0 0.00 0.00 0.00 36 1014.4
20260503220047 66 187 1.0 7.0 0.00 0.00 0.00 36 1014.8